Location: Newark
(54.4333°N, 18.5500°E)
Time: 16:52:23
(UTC+00:00)

Envisat - Pass Details

Date: 16 December 2019
Orbit: 764 x 766 km, 98.1° (Epoch: 23 January)

Event Time Altitude Azimuth Distance (km) Brightness Sun altitude
Rises 15:35:58 0° 140° (SE) 3,227 6.1 -9.9°
Reaches altitude 10° 15:38:22 10° 134° (SE) 2,304 5.3 -10.2°
Maximum altitude 15:43:08 43° 64° (ENE) 1,079 3.3 -10.8°
Drops below altitude 10° 15:47:55 10° 355° (N) 2,319 5.3 -11.5°
Sets 15:50:20 0° 349° (NNW) 3,249 6.1 -11.8°
